Cortland County-chase Field, NY

1:55 PM EST on January 17, 2018 (GMT -0500)
Cortland County-chase Field

Weather History for KN03 - January, 2014

Change the Weather History Date:

Sunday, January 12, 2014

  Actual Average (KITH) Record (KITH)
Temperature  
Mean Temperature 34 °F -  
Max Temperature 39 °F 28 °F 66 °F (1975)
Min Temperature 26 °F 12 °F -23 °F (1968)
Degree Days  
Heating Degree Days 32    
Moisture  
Dew Point 30 °F    
Average Humidity 88    
Maximum Humidity 100    
Minimum Humidity 75    
Precipitation  
Precipitation 0.00 in - - ()
Sea Level Pressure  
Sea Level Pressure 29.77 in    
Wind  
Wind Speed 10 mph (West)    
Max Wind Speed 17 mph    
Max Gust Speed 26 mph    
Visibility 10 miles    
Events Snow    
Averages and records for this station are not official NWS values.
T = Trace of Precipitation, MM = Missing Value Source: NWS Daily Summary

Daily Weather History Graph

Daily Weather History Graph

Search for Another Location

Airport or City:

Trip Planner

Search our weather history database for the weather conditions in past years. The results will help you decide how hot, cold, wet, or windy it might be!

Date:

Astronomy

Jan. 12, 2014 Rise Set
Actual Time 7:33 AM EST 4:53 PM EST
Civil Twilight 7:01 AM EST 5:24 PM EST
Nautical Twilight 6:26 AM EST 5:59 PM EST
Astronomical Twilight 5:53 AM EST 6:33 PM EST
Moon 2:20 PM EST (1/12) 4:29 AM EST (1/12)
Length of Visible Light 10h 22m
Length of Day
9h 20m
Waxing Gibbous, 89% of the Moon is Illuminated
Jan 12
Waxing Gibbous
Jan 15
Full
Jan 24
Last Quarter
Jan 30
New
Feb 6
First Quarter

Hourly Weather History & Observations

Time (EST) Temp. Windchill Dew Point Humidity Pressure Visibility Wind Dir Wind Speed Gust Speed Precip Events Conditions
12:15 AM 39.2 °F 30.2 °F 32.0 °F 75% 29.44 in 10.0 mi West 17.3 mph 24.2 mph N/A   Overcast
12:35 AM 37.4 °F 30.3 °F 32.0 °F 81% 29.45 in 10.0 mi West 10.4 mph 20.7 mph N/A   Overcast
12:55 AM 37.4 °F 27.8 °F 32.0 °F 81% 29.45 in 10.0 mi West 17.3 mph 25.3 mph N/A   Overcast
1:15 AM 35.6 °F 26.2 °F 32.0 °F 87% 29.46 in 10.0 mi West 15.0 mph 26.5 mph N/A   Overcast
1:35 AM 35.6 °F 27.5 °F 32.0 °F 87% 29.48 in 10.0 mi West 11.5 mph 20.7 mph N/A   Overcast
1:55 AM 35.6 °F 27.5 °F 32.0 °F 87% 29.49 in 10.0 mi West 11.5 mph 24.2 mph N/A   Overcast
2:15 AM 35.6 °F 27.1 °F 32.0 °F 87% 29.51 in 10.0 mi West 12.7 mph 17.3 mph N/A   Overcast
2:35 AM 35.6 °F 29.2 °F 32.0 °F 87% 29.52 in 10.0 mi West 8.1 mph 17.3 mph N/A   Overcast
2:55 AM 35.6 °F 30.7 °F 32.0 °F 87% 29.53 in 10.0 mi West 5.8 mph - N/A   Overcast
3:15 AM 35.6 °F 31.7 °F 32.0 °F 87% 29.54 in 10.0 mi WSW 4.6 mph - N/A   Overcast
3:35 AM 35.6 °F 28.6 °F 32.0 °F 87% 29.55 in 10.0 mi West 9.2 mph - N/A   Overcast
3:55 AM 35.6 °F 29.2 °F 32.0 °F 87% 29.56 in 10.0 mi West 8.1 mph - N/A   Overcast
4:15 AM 33.8 °F 27.0 °F 32.0 °F 93% 29.56 in 10.0 mi West 8.1 mph - N/A   Overcast
4:35 AM 33.8 °F 27.0 °F 32.0 °F 93% 29.56 in 10.0 mi West 8.1 mph 17.3 mph N/A   Overcast
4:55 AM 33.8 °F 25.3 °F 32.0 °F 93% 29.56 in 10.0 mi West 11.5 mph 20.7 mph N/A   Overcast
5:15 AM 35.6 °F 28.0 °F 30.2 °F 81% 29.58 in 10.0 mi West 10.4 mph 16.1 mph N/A   Overcast
5:35 AM 33.8 °F 27.0 °F 30.2 °F 87% 29.59 in 10.0 mi West 8.1 mph - N/A   Overcast
5:55 AM 33.8 °F 27.0 °F 30.2 °F 87% 29.61 in 10.0 mi West 8.1 mph 16.1 mph N/A   Overcast
6:15 AM 33.8 °F 26.4 °F 30.2 °F 87% 29.62 in 10.0 mi West 9.2 mph - N/A   Overcast
6:35 AM 33.8 °F 27.0 °F 32.0 °F 93% 29.63 in 10.0 mi West 8.1 mph - N/A   Overcast
6:55 AM 33.8 °F 27.0 °F 32.0 °F 93% 29.64 in 10.0 mi West 8.1 mph - N/A   Overcast
7:15 AM 33.8 °F 25.8 °F 30.2 °F 87% 29.66 in 10.0 mi West 10.4 mph 17.3 mph N/A   Overcast
7:35 AM 33.8 °F 26.4 °F 30.2 °F 87% 29.67 in 10.0 mi West 9.2 mph - N/A   Overcast
7:55 AM 33.8 °F 25.8 °F 30.2 °F 87% 29.68 in 10.0 mi West 10.4 mph - N/A   Overcast
8:15 AM 33.8 °F 25.3 °F 30.2 °F 87% 29.71 in 10.0 mi West 11.5 mph 23.0 mph N/A   Overcast
8:35 AM 33.8 °F 25.3 °F 30.2 °F 87% 29.72 in 10.0 mi West 11.5 mph 18.4 mph N/A   Overcast
8:55 AM 33.8 °F 27.0 °F 32.0 °F 93% 29.74 in 7.0 mi West 8.1 mph 16.1 mph N/A Snow Light Snow
9:15 AM 33.8 °F 27.0 °F 32.0 °F 93% 29.75 in 7.0 mi WNW 8.1 mph - N/A Snow Light Snow
9:35 AM 33.8 °F 28.6 °F 30.2 °F 87% 29.76 in 10.0 mi West 5.8 mph 18.4 mph N/A   Overcast
9:55 AM 33.8 °F 27.0 °F 30.2 °F 87% 29.77 in 10.0 mi West 8.1 mph 17.3 mph N/A   Overcast
10:15 AM 33.8 °F 25.3 °F 30.2 °F 87% 29.78 in 10.0 mi West 11.5 mph 16.1 mph N/A   Overcast
10:35 AM 33.8 °F 25.8 °F 30.2 °F 87% 29.78 in 10.0 mi West 10.4 mph 16.1 mph N/A   Overcast
10:55 AM 33.8 °F 26.4 °F 30.2 °F 87% 29.78 in 10.0 mi West 9.2 mph - N/A   Overcast
11:15 AM 33.8 °F 27.7 °F 30.2 °F 87% 29.79 in 10.0 mi West 6.9 mph - N/A   Overcast
11:35 AM 33.8 °F 24.3 °F 30.2 °F 87% 29.79 in 10.0 mi West 13.8 mph 24.2 mph N/A   Overcast
11:55 AM 33.8 °F 24.3 °F 30.2 °F 87% 29.79 in 10.0 mi WNW 13.8 mph 20.7 mph N/A   Overcast
12:15 PM 33.8 °F 24.3 °F 30.2 °F 87% 29.81 in 10.0 mi West 13.8 mph 21.9 mph N/A   Overcast
12:35 PM 32.0 °F 22.5 °F 30.2 °F 93% 29.80 in 10.0 mi West 12.7 mph 20.7 mph N/A   Overcast
12:55 PM 32.0 °F 24.2 °F 30.2 °F 93% 29.80 in 10.0 mi West 9.2 mph - N/A   Overcast
1:15 PM 33.8 °F 24.8 °F 30.2 °F 87% 29.80 in 10.0 mi West 12.7 mph 18.4 mph N/A   Overcast
1:35 PM 32.0 °F 24.2 °F 30.2 °F 93% 29.81 in 10.0 mi West 9.2 mph 18.4 mph N/A   Overcast
1:55 PM 32.0 °F 25.6 °F 30.2 °F 93% 29.82 in 10.0 mi West 6.9 mph - N/A   Overcast
2:15 PM 33.8 °F 27.7 °F 30.2 °F 87% 29.83 in 10.0 mi West 6.9 mph - N/A   Overcast
2:35 PM 33.8 °F 26.4 °F 30.2 °F 87% 29.83 in 10.0 mi West 9.2 mph 18.4 mph N/A   Overcast
2:55 PM 33.8 °F 26.4 °F 30.2 °F 87% 29.85 in 10.0 mi West 9.2 mph 19.6 mph N/A   Overcast
3:15 PM 33.8 °F 28.6 °F 30.2 °F 87% 29.87 in 10.0 mi WNW 5.8 mph - N/A   Overcast
3:35 PM 33.8 °F 25.3 °F 28.4 °F 81% 29.89 in 10.0 mi West 11.5 mph - N/A   Overcast
3:55 PM 33.8 °F 26.4 °F 28.4 °F 81% 29.90 in 10.0 mi West 9.2 mph 17.3 mph N/A   Overcast
4:15 PM 33.8 °F 26.4 °F 28.4 °F 81% 29.90 in 10.0 mi West 9.2 mph - N/A   Overcast
4:35 PM 32.0 °F 25.6 °F 30.2 °F 93% 29.91 in 10.0 mi West 6.9 mph - N/A   Overcast
4:55 PM 32.0 °F 25.6 °F 28.4 °F 87% 29.93 in 10.0 mi WSW 6.9 mph - N/A   Overcast
5:15 PM 33.8 °F 27.7 °F 28.4 °F 81% 29.94 in 10.0 mi WSW 6.9 mph - N/A   Overcast
5:35 PM 33.8 °F 27.0 °F 28.4 °F 81% 29.95 in 10.0 mi West 8.1 mph - N/A   Overcast
5:55 PM 33.8 °F 27.0 °F 28.4 °F 81% 29.95 in 10.0 mi West 8.1 mph - N/A   Overcast
6:15 PM 33.8 °F 29.6 °F 28.4 °F 81% 29.95 in 10.0 mi SW 4.6 mph - N/A   Overcast
6:35 PM 32.0 °F 24.8 °F 28.4 °F 87% 29.96 in 10.0 mi WSW 8.1 mph - N/A   Overcast
6:55 PM 32.0 °F 28.7 °F 28.4 °F 87% 29.96 in 10.0 mi West 3.5 mph - N/A   Overcast
7:15 PM 32.0 °F 27.5 °F 28.4 °F 87% 29.96 in 10.0 mi SW 4.6 mph - N/A   Overcast
7:35 PM 32.0 °F 27.5 °F 28.4 °F 87% 29.97 in 10.0 mi SW 4.6 mph - N/A   Overcast
7:55 PM 32.0 °F 28.7 °F 28.4 °F 87% 29.97 in 10.0 mi SW 3.5 mph - N/A   Overcast
8:15 PM 32.0 °F 28.7 °F 28.4 °F 87% 29.98 in 10.0 mi SW 3.5 mph - N/A   Overcast
8:35 PM 32.0 °F - 26.6 °F 80% 29.97 in 10.0 mi Calm Calm - N/A   Scattered Clouds
8:55 PM 30.2 °F - 26.6 °F 86% 29.98 in 10.0 mi Calm Calm - N/A   Clear
9:15 PM 30.2 °F - 26.6 °F 86% 29.97 in 10.0 mi Calm Calm - N/A   Clear
9:35 PM 30.2 °F 26.7 °F 26.6 °F 86% 29.98 in 10.0 mi SSW 3.5 mph - N/A   Clear
9:55 PM 30.2 °F - 26.6 °F 86% 29.97 in 10.0 mi Calm Calm - N/A   Clear
10:15 PM 28.4 °F - 26.6 °F 93% 29.98 in 10.0 mi Calm Calm - N/A   Clear
10:35 PM 28.4 °F - 28.4 °F 100% 29.97 in 10.0 mi Calm Calm - N/A   Clear
10:55 PM 28.4 °F - 28.4 °F 100% 29.98 in 10.0 mi Calm Calm - N/A   Clear
11:15 PM 28.4 °F - 26.6 °F 93% 29.98 in 10.0 mi Calm Calm - N/A   Clear
11:35 PM 28.4 °F - 26.6 °F 93% 29.98 in 10.0 mi Calm Calm - N/A   Clear
11:55 PM 26.6 °F - 26.6 °F 100% 29.98 in 10.0 mi Calm Calm - N/A   Clear